Freeport, IL

1:58 PM CDT on August 21, 2017 (GMT -0500)
Albertus

Weather History for KFEP - November, 2011

Change the Weather History Date:

Wednesday, November 16, 2011

  Actual Average Record
Temperature  
Mean Temperature 33 °F -  
Max Temperature 39 °F 46 °F 68 °F (1990)
Min Temperature 27 °F 29 °F 8 °F (2014)
Degree Days  
Heating Degree Days 32    
Moisture  
Dew Point 15 °F    
Average Humidity 48    
Maximum Humidity 69    
Minimum Humidity 22    
Precipitation  
Precipitation 0.00 in - - ()
Sea Level Pressure  
Sea Level Pressure 30.07 in    
Wind  
Wind Speed 12 mph (West)    
Max Wind Speed 21 mph    
Max Gust Speed 30 mph    
Visibility 10 miles    
Events      
Averages and records for this station are not official NWS values.
T = Trace of Precipitation, MM = Missing Value Source: NWS Daily Summary

Daily Weather History Graph

Daily Weather History Graph

Search for Another Location

Airport or City:

Trip Planner

Search our weather history database for the weather conditions in past years. The results will help you decide how hot, cold, wet, or windy it might be!

Date:

Astronomy

Nov. 16, 2011 Rise Set
Actual Time 6:49 AM CST 4:35 PM CST
Civil Twilight 6:19 AM CST 5:06 PM CST
Nautical Twilight 5:45 AM CST 5:40 PM CST
Astronomical Twilight 5:12 AM CST 6:13 PM CST
Moon 9:50 PM CST (11/16) 11:25 AM CST (11/16)
Length of Visible Light 10h 46m
Length of Day
9h 46m
Waning Gibbous, 70% of the Moon is Illuminated
Nov 16
Waning Gibbous
Nov 18
Last Quarter
Nov 25
New
Dec 2
First Quarter
Dec 10
Full

Hourly Weather History & Observations

Time (CST) Temp. Windchill Dew Point Humidity Pressure Visibility Wind Dir Wind Speed Gust Speed Precip Events Conditions
12:15 AM 36.7 °F 27.6 °F 19.9 °F 51% 29.94 in 10.0 mi West 15.0 mph 23.0 mph N/A   Clear
12:35 AM 36.7 °F 28.0 °F 20.8 °F 53% 29.94 in 10.0 mi West 13.8 mph 19.6 mph N/A   Clear
12:55 AM 36.7 °F 28.4 °F 21.0 °F 53% 29.95 in 10.0 mi West 12.7 mph 21.9 mph N/A   Clear
1:15 AM 34.9 °F 27.7 °F 20.3 °F 55% 29.95 in 10.0 mi West 9.2 mph - N/A   Clear
1:35 AM 32.5 °F 27.1 °F 21.2 °F 63% 29.96 in 10.0 mi WSW 5.8 mph - N/A   Clear
1:55 AM 32.0 °F 26.4 °F 20.3 °F 62% 29.96 in 10.0 mi West 5.8 mph - N/A   Clear
2:15 AM 32.0 °F 25.6 °F 21.0 °F 64% 29.97 in 10.0 mi WSW 6.9 mph - N/A   Clear
2:35 AM 32.0 °F 25.6 °F 21.0 °F 64% 29.96 in 10.0 mi WSW 6.9 mph - N/A   Clear
2:55 AM 32.0 °F 25.6 °F 21.4 °F 65% 29.98 in 10.0 mi West 6.9 mph - N/A   Clear
3:15 AM 32.0 °F 24.2 °F 22.3 °F 67% 29.97 in 10.0 mi West 9.2 mph - N/A   Clear
3:35 AM 32.0 °F 23.6 °F 20.8 °F 63% 29.97 in 10.0 mi West 10.4 mph - N/A   Clear
3:55 AM 32.0 °F 23.6 °F 20.3 °F 62% 29.97 in 10.0 mi West 10.4 mph - N/A   Clear
4:15 AM 32.0 °F 23.0 °F 20.8 °F 63% 29.98 in 10.0 mi West 11.5 mph 16.1 mph N/A   Clear
4:35 AM 32.0 °F 25.6 °F 21.0 °F 64% 29.99 in 10.0 mi WSW 6.9 mph - N/A   Clear
4:55 AM 32.0 °F 24.2 °F 22.1 °F 67% 30.00 in 10.0 mi WSW 9.2 mph - N/A   Clear
5:15 AM 32.0 °F 22.5 °F 21.2 °F 64% 30.01 in 10.0 mi West 12.7 mph - N/A   Clear
5:35 AM 30.4 °F 20.5 °F 19.9 °F 65% 30.02 in 10.0 mi West 12.7 mph 17.3 mph N/A   Clear
5:55 AM 29.3 °F 19.6 °F 19.2 °F 66% 30.03 in 10.0 mi West 11.5 mph - N/A   Clear
6:15 AM 29.3 °F 19.6 °F 19.0 °F 66% 30.03 in 10.0 mi West 11.5 mph - N/A   Clear
6:35 AM 29.3 °F 19.6 °F 19.0 °F 66% 30.05 in 10.0 mi West 11.5 mph - N/A   Clear
6:55 AM 27.3 °F 19.1 °F 17.4 °F 66% 30.06 in 10.0 mi West 8.1 mph - N/A   Clear
7:15 AM 27.7 °F 18.2 °F 18.1 °F 67% 30.07 in 10.0 mi West 10.4 mph - N/A   Clear
7:35 AM 28.4 °F 19.1 °F 19.4 °F 69% 30.08 in 10.0 mi West 10.4 mph - N/A   Clear
7:55 AM 29.3 °F 19.6 °F 18.3 °F 64% 30.09 in 10.0 mi West 11.5 mph - N/A   Clear
8:15 AM 29.3 °F 20.8 °F 18.0 °F 63% 30.09 in 10.0 mi West 9.2 mph - N/A   Clear
8:35 AM 32.0 °F 21.2 °F 18.1 °F 57% 30.10 in 10.0 mi West 16.1 mph 20.7 mph N/A   Clear
8:55 AM 32.0 °F 22.5 °F 16.5 °F 53% 30.10 in 10.0 mi WNW 12.7 mph 21.9 mph N/A   Clear
9:15 AM 32.0 °F 21.2 °F 16.2 °F 52% 30.10 in 10.0 mi West 16.1 mph 25.3 mph N/A   Clear
9:35 AM 32.9 °F 22.4 °F 16.5 °F 51% 30.11 in 10.0 mi WNW 16.1 mph 25.3 mph N/A   Clear
9:55 AM 34.2 °F 22.6 °F 16.0 °F 47% 30.11 in 10.0 mi WNW 20.7 mph 27.6 mph N/A   Clear
10:15 AM 34.3 °F 24.2 °F 16.0 °F 47% 30.11 in 10.0 mi WNW 16.1 mph 29.9 mph N/A   Clear
10:35 AM 35.1 °F 26.4 °F 17.4 °F 49% 30.12 in 10.0 mi WNW 12.7 mph 20.7 mph N/A   Clear
10:55 AM 36.7 °F 28.0 °F 17.4 °F 46% 30.12 in 10.0 mi West 13.8 mph 23.0 mph N/A   Clear
11:15 AM 36.7 °F 26.9 °F 16.0 °F 43% 30.11 in 10.0 mi WNW 17.3 mph 25.3 mph N/A   Clear
11:35 AM 37.4 °F 26.9 °F 13.8 °F 38% 30.11 in 10.0 mi WNW 20.7 mph - N/A   Clear
11:55 AM 37.6 °F 27.7 °F 10.9 °F 33% 30.11 in 10.0 mi WNW 18.4 mph 27.6 mph N/A   Clear
12:15 PM 37.9 °F 28.9 °F 10.9 °F 33% 30.11 in 10.0 mi WNW 16.1 mph 27.6 mph N/A   Clear
12:35 PM 39.2 °F 30.2 °F 10.8 °F 31% 30.11 in 10.0 mi West 17.3 mph 24.2 mph N/A   Clear
12:55 PM 39.2 °F 29.8 °F 8.6 °F 28% 30.11 in 10.0 mi West 18.4 mph 25.3 mph N/A   Clear
1:15 PM 39.2 °F 29.8 °F 7.5 °F 27% 30.11 in 10.0 mi WNW 18.4 mph 26.5 mph N/A   Clear
1:35 PM 39.2 °F 29.8 °F 6.3 °F 26% 30.11 in 10.0 mi West 18.4 mph 27.6 mph N/A   Clear
1:55 PM 39.2 °F 30.8 °F 5.2 °F 24% 30.12 in 10.0 mi WNW 15.0 mph 21.9 mph N/A   Clear
2:15 PM 39.2 °F 29.8 °F 4.5 °F 24% 30.12 in 10.0 mi West 18.4 mph 21.9 mph N/A   Clear
2:35 PM 39.2 °F 31.6 °F 4.3 °F 23% 30.12 in 10.0 mi West 12.7 mph 26.5 mph N/A   Clear
2:55 PM 39.2 °F 31.2 °F 4.1 °F 23% 30.12 in 10.0 mi WNW 13.8 mph 21.9 mph N/A   Clear
3:15 PM 39.2 °F 31.6 °F 4.1 °F 23% 30.13 in 10.0 mi West 12.7 mph 23.0 mph N/A   Clear
3:35 PM 37.9 °F 29.2 °F 2.3 °F 22% 30.13 in 10.0 mi West 15.0 mph 24.2 mph N/A   Clear
3:55 PM 36.7 °F 27.2 °F 1.6 °F 23% 30.14 in 10.0 mi West 16.1 mph 20.7 mph N/A   Clear
4:15 PM 36.7 °F 30.5 °F 4.6 °F 26% 30.14 in 10.0 mi West 8.1 mph - N/A   Clear
4:35 PM 34.0 °F 28.8 °F 6.6 °F 32% 30.15 in 10.0 mi West 5.8 mph - N/A   Clear
4:55 PM 32.9 °F 29.8 °F 8.6 °F 36% 30.15 in 10.0 mi WSW 3.5 mph - N/A   Clear
5:15 PM 32.0 °F 26.4 °F 9.9 °F 40% 30.16 in 10.0 mi WSW 5.8 mph - N/A   Clear
5:35 PM 32.0 °F 27.5 °F 10.8 °F 41% 30.16 in 10.0 mi WSW 4.6 mph - N/A   Clear
5:55 PM 32.0 °F 27.5 °F 12.2 °F 44% 30.16 in 10.0 mi WSW 4.6 mph - N/A   Clear
6:15 PM 31.8 °F 28.5 °F 12.7 °F 45% 30.17 in 10.0 mi SW 3.5 mph - N/A   Clear
6:35 PM 29.3 °F 25.6 °F 11.5 °F 47% 30.17 in 10.0 mi SW 3.5 mph - N/A   Clear
6:55 PM 27.7 °F 21.3 °F 12.2 °F 52% 30.16 in 10.0 mi SSW 5.8 mph - N/A   Clear
7:15 PM 27.0 °F 20.5 °F 13.3 °F 56% 30.16 in 10.0 mi SSW 5.8 mph - N/A   Clear
7:35 PM 27.0 °F 18.7 °F 14.0 °F 58% 30.16 in 10.0 mi SSW 8.1 mph - N/A   Clear
7:55 PM 28.0 °F 20.0 °F 14.2 °F 56% 30.15 in 10.0 mi SSW 8.1 mph - N/A   Clear
8:15 PM 29.3 °F 20.2 °F 15.4 °F 56% 30.15 in 10.0 mi SSW 10.4 mph - N/A   Clear
8:35 PM 29.3 °F 20.8 °F 16.2 °F 58% 30.15 in 10.0 mi SSW 9.2 mph - N/A   Clear
8:55 PM 29.3 °F 20.8 °F 15.1 °F 55% 30.15 in 10.0 mi SSW 9.2 mph - N/A   Clear
9:15 PM 29.3 °F 20.8 °F 15.4 °F 56% 30.14 in 10.0 mi SW 9.2 mph - N/A   Clear
9:35 PM 29.3 °F 20.8 °F 15.6 °F 57% 30.14 in 10.0 mi SW 9.2 mph - N/A   Clear
9:55 PM 29.3 °F 20.2 °F 14.7 °F 55% 30.14 in 10.0 mi SW 10.4 mph - N/A   Clear
10:15 PM 29.3 °F 21.5 °F 14.0 °F 53% 30.14 in 10.0 mi SW 8.1 mph - N/A   Clear
10:35 PM 28.4 °F 19.7 °F 15.8 °F 59% 30.14 in 10.0 mi WSW 9.2 mph - N/A   Clear
10:55 PM 27.1 °F 18.9 °F 14.0 °F 58% 30.14 in 10.0 mi WSW 8.1 mph - N/A   Clear
11:15 PM 27.0 °F 19.5 °F 14.7 °F 60% 30.14 in 10.0 mi WSW 6.9 mph - N/A   Clear
11:35 PM 25.9 °F 19.2 °F 14.2 °F 61% 30.15 in 10.0 mi SW 5.8 mph - N/A   Clear
11:55 PM 27.0 °F 18.0 °F 14.5 °F 60% 30.14 in 10.0 mi WSW 9.2 mph - N/A   Clear